Temperature
18 17 17 17 17 17 17 17 17 17 17 17 17 17 17 17 18 18 18 18 18 18 18 18 18 17 17 17 17 17 17 17 17 17 17 16 16 16 16 16 16 16 16
18 17 17 18 18 18 18 17 17 17 17 17 17 17 17 18 17 17 18 18 18 18 18 18 18 18 17 17 17 17 17 17 17 17 17 16 16 16 16 16 16 16 16
18 18 18 18 18 18 17 17 17 17 18 18 18 17 18 18 18 17 17 17 18 18 18 18 18 18 17 17 17 17 17 17 17 17 17 17 17 16 16 16 16 16 16
18 18 18 18 18 18 18 18 18 18 18 18 18 18 18 18 17 17 18 17 18 18 18 18 18 18 17 17 17 17 17 17 17 17 17 17 17 17 17 16 16 16 16
18 18 18 18 18 18 18 18 18 18 18 18 18 18 18 18 18 18 18 18 17 17 17 18 18 18 18 17 17 17 17 17 17 17 17 17 17 17 17 16 16 16 16
18 18 18 18 18 18 18 18 18 18 18 18 18 18 18 18 18 18 18 18 18 18 18 17 17 18 18 18 17 17 17 17 17 17 17 17 17 17 16 16 16 16 16
18 18 18 18 18 18 18 18 18 18 18 18 18 18 19 18 18 18 18 18 18 18 18 18 17 17 17 17 18 17 17 17 17 17 17 17 17 17 17 16 16 16 16
18 18 18 18 18 18 18 18 18 18 18 18 18 19 19 19 18 19 18 18 18 18 18 18 17 17 17 17 17 17 17 17 17 17 17 17 17 17 17 17 16 16 16
18 18 18 18 18 18 18 18 18 18 18 18 18 18 19 20 19 19 18 18 18 18 18 18 18 17 17 17 17 17 17 17 17 17 17 17 17 17 16 16 16 16 16
18 18 18 18 18 18 18 18 18 18 18 18 18 18 18 18 18 19 18 18 18 18 18 18 18 17 17 17 17 17 17 17 17 17 17 17 17 17 16 16 16 16 16
18 18 18 18 18 18 18 18 18 18 18 18 18 18 18 17 18 18 18 18 18 18 18 17 17 17 17 17 17 17 17 17 17 17 17 17 17 17 16 16 16 16 16
18 18 18 18 18 18 18 18 18 18 18 18 17 17 18 18 18 18 18 18 18 18 18 17 17 17 17 17 17 17 17 17 17 17 17 17 17 17 16 16 16 16 16
19 19 18 18 18 18 18 18 18 18 17 17 17 17 17 18 18 18 18 18 18 18 17 17 17 17 17 17 17 17 17 17 17 17 17 17 17 16 16 16 16 16 16
19 19 19 19 18 18 18 18 18 18 18 17 17 17 17 17 17 17 17 17 18 18 18 18 17 17 17 17 17 17 17 17 17 17 17 17 16 16 16 16 16 16 16
19 18 19 19 18 18 18 18 18 18 17 17 17 17 17 17 17 17 17 17 17 18 18 18 17 17 16 16 17 16 17 17 17 17 17 16 16 16 16 16 16 16 16
19 18 18 18 18 18 18 18 18 18 18 17 17 17 17 17 17 17 17 17 17 17 17 17 17 17 16 16 16 16 16 16 16 16 16 16 16 16 16 16 16 15 15
18 18 18 18 18 18 18 18 18 17 17 17 17 17 17 17 17 17 17 17 17 17 17 17 17 16 16 16 16 16 16 16 16 16 16 16 16 16 16 16 15 15 15
18 18 18 18 18 17 17 17 17 17 17 17 17 17 17 17 16 17 17 17 16 16 16 17 16 16 16 16 16 16 15 15 15 16 16 16 16 16 16 15 15 15 15
18 18 18 18 18 17 17 17 17 17 17 17 17 16 16 16 16 16 16 16 16 16 16 16 16 16 16 16 16 15 15 15 15 15 15 15 16 15 15 15 15 15 15
18 18 18 18 18 17 17 17 17 17 17 17 17 16 16 16 16 16 16 16 16 16 16 16 16 16 16 16 15 15 15 15 15 15 15 15 15 15 15 15 15 15 15
18 18 18 17 17 17 17 17 17 17 16 16 16 16 16 16 16 16 16 16 16 16 16 16 16 16 16 15 15 15 15 15 15 15 15 15 15 15 15 15 15 15 15
18 17 17 17 17 17 17 17 17 16 16 16 16 16 16 16 16 16 16 16 16 16 16 16 16 16 15 15 15 15 15 15 15 15 15 15 15 15 15 15 15 15 14
17 17 17 17 17 17 17 17 17 16 16 16 16 16 16 16 16 16 16 16 16 16 16 16 15 15 15 15 15 15 15 15 15 15 15 15 15 14 14 14 15 15 14
17 17 17 17 17 17 17 17 16 16 16 16 16 15 15 15 15 15 15 15 15 15 15 15 15 15 15 15 15 15 15 14 14 14 15 14 15 14 14 14 14 14 14
17 17 17 16 16 16 16 16 16 15 15 15 15 15 15 15 15 15 15 15 15 15 15 15 15 15 15 15 15 15 14 14 14 14 14 14 14 14 14 14 14 14 14
16 16 16 16 16 16 16 16 16 15 15 15 15 15 15 15 15 15 15 14 14 14 14 14 14 15 15 15 15 14 14 14 14 14 14 14 14 14 14 14 13 13 13
Wind_Speed
3 3 2 2 3 3 4 3 3 3 3 4 3 3 3 3 3 3 4 8 9 9 9 9 10 10 10 10 11 11 11 12 13 13 12 12 11 11 11 12 12 12 12
2 2 3 2 2 3 2 3 3 3 3 2 3 3 4 4 3 4 4 6 11 11 10 10 10 11 11 11 11 12 12 13 14 14 14 14 13 13 13 13 13 13 13
3 2 2 2 2 2 3 2 2 3 3 3 3 3 3 4 3 4 5 4 6 11 12 12 11 11 12 12 12 12 13 14 14 15 15 16 15 15 15 14 14 15 15
4 3 2 2 2 2 3 2 3 3 2 2 2 3 3 3 4 4 5 5 5 5 9 12 11 11 12 12 13 13 14 14 14 15 15 16 16 16 16 16 16 16 16
5 4 3 2 3 3 3 3 3 3 3 2 3 3 3 3 3 4 4 4 4 4 5 9 11 11 11 12 12 12 12 13 14 14 14 15 15 15 16 17 17 17 17
6 5 4 3 3 2 3 2 2 3 3 3 3 2 3 3 3 3 3 3 3 4 5 4 6 9 12 12 11 11 11 11 11 12 13 14 14 15 15 15 16 16 16
6 5 4 3 3 3 2 3 3 4 4 2 2 2 3 3 3 3 3 3 2 3 3 4 5 5 6 13 12 11 10 10 11 11 12 13 13 13 14 14 15 16 16
7 7 6 4 4 3 3 4 4 3 3 3 3 3 3 3 3 3 3 3 2 2 3 4 4 4 5 5 7 11 10 10 10 10 11 12 12 13 13 14 15 16 16
8 7 6 5 4 5 4 4 4 5 3 3 3 2 2 1 1 2 3 3 2 2 3 2 4 4 5 4 4 7 8 8 9 9 9 10 11 11 12 12 13 13 12
8 8 7 6 6 5 4 5 5 4 5 4 3 3 3 2 2 1 3 3 3 3 4 3 3 4 4 4 3 3 5 6 7 8 8 8 8 9 9 9 9 10 11
8 8 8 7 6 6 6 5 4 5 5 5 4 3 4 4 5 4 3 3 3 3 3 4 3 3 3 4 3 3 5 6 6 6 6 7 7 7 7 7 7 8 9
7 9 8 7 7 6 6 6 6 7 6 5 5 4 4 4 4 4 4 5 4 3 2 3 3 3 4 4 3 3 4 6 6 6 6 6 6 6 7 7 7 8 7
7 7 8 7 7 7 7 6 6 6 6 6 6 5 5 5 4 4 5 5 5 4 3 4 3 3 4 3 2 4 4 5 6 6 6 6 6 6 5 5 5 5 5
7 6 7 7 8 8 7 7 6 7 6 7 7 6 5 6 5 5 5 5 5 4 4 4 3 3 3 3 2 4 4 6 6 6 6 6 6 5 5 5 5 4 4
7 7 7 7 7 8 8 7 6 7 6 7 7 7 7 6 5 5 5 5 6 6 5 3 3 3 2 3 2 4 4 4 6 6 6 7 6 6 5 5 5 5 4
7 7 8 8 8 8 8 8 7 7 7 7 6 6 7 7 5 6 5 5 6 6 6 3 3 3 2 3 3 4 4 5 7 7 7 7 7 7 7 7 6 6 6
8 8 8 8 8 8 8 8 8 8 8 8 8 8 8 7 6 6 5 6 6 6 6 5 4 3 4 5 3 4 5 5 5 8 8 8 8 8 8 8 7 7 7
9 8 8 9 9 9 8 9 9 9 8 8 8 8 8 7 7 7 6 6 6 6 7 7 5 4 5 5 5 5 5 5 5 8 10 9 9 9 9 9 9 8 8
9 9 9 9 8 8 9 9 9 9 9 9 8 9 9 8 8 6 7 7 6 6 6 7 6 4 5 5 5 6 6 5 6 6 10 11 10 10 11 11 10 10 9
8 9 9 9 8 8 8 8 8 8 8 8 8 9 9 9 8 8 8 8 7 7 7 7 7 6 5 5 5 5 5 5 6 5 6 7 9 12 12 12 12 11 11
8 8 8 8 8 8 7 8 8 9 8 8 8 8 8 7 7 7 7 7 7 7 7 7 7 6 6 5 6 6 6 5 5 5 5 6 7 8 9 12 13 12 12
8 8 8 8 8 7 4 5 8 8 8 8 8 8 8 8 8 8 8 8 7 8 8 7 7 7 7 7 6 7 6 6 5 5 6 6 6 6 6 8 11 13 13
8 8 9 8 8 7 6 6 7 8 8 8 8 7 8 7 8 8 8 9 8 8 9 9 9 8 7 6 6 8 7 8 7 5 6 7 6 6 6 6 11 14 15
8 8 8 8 8 7 7 7 7 9 8 8 8 8 8 7 6 6 7 8 9 9 9 9 8 8 7 5 7 9 9 9 8 7 6 7 5 5 5 5 11 14 15
8 8 8 8 9 7 8 8 8 7 7 8 8 8 7 7 5 5 8 8 9 8 8 8 8 8 7 7 7 7 7 7 7 6 6 6 5 5 5 5 7 14 15
8 8 8 8 9 8 7 8 8 6 6 6 7 7 8 7 6 6 8 8 9 8 8 8 8 10 10 10 11 10 9 8 7 6 5 5 5 4 4 5 5 7 10
Wind_Direction
173 160 165 181 188 182 191 197 201 191 202 203 210 203 221 234 239 235 176 176 200 212 219 222 220 219 221 222 223 221 217 215 214 214 218 221 223 224 228 226 226 227 230
179 187 183 186 192 201 200 203 192 200 218 205 215 219 231 227 222 246 240 194 199 210 220 225 227 225 226 228 229 228 225 223 222 221 221 223 224 227 231 231 231 232 233
187 204 206 204 198 193 189 203 195 205 210 205 213 229 235 242 227 237 249 246 211 202 211 222 228 228 229 230 231 232 231 230 228 227 226 226 227 229 231 233 235 235 235
212 225 219 211 197 211 200 199 214 211 207 218 221 235 232 223 232 230 237 239 245 230 205 210 222 226 229 230 231 232 233 234 232 232 232 231 231 233 233 233 235 237 238
212 223 220 204 210 216 222 224 197 223 216 232 229 215 233 227 220 224 233 237 237 248 239 193 205 219 226 228 227 231 233 234 234 234 235 234 235 237 238 237 237 237 238
212 226 213 207 225 221 224 220 214 233 245 241 258 239 239 229 227 221 236 228 226 233 236 230 211 211 213 219 224 227 229 230 232 234 236 238 238 239 241 241 240 237 239
210 220 231 201 224 225 233 225 227 220 232 230 250 241 219 213 215 217 228 243 227 232 233 231 240 240 207 205 214 219 224 231 234 235 235 238 239 240 240 238 238 239 240
213 211 220 225 216 222 227 226 230 243 236 216 249 261 236 195 203 216 214 218 235 226 225 226 231 234 246 216 194 202 219 229 234 235 237 240 243 243 241 240 239 239 239
215 223 218 228 229 232 226 227 228 233 238 227 233 260 273 266 259 191 217 222 231 253 251 240 232 233 235 231 216 190 203 221 232 238 241 242 245 246 243 242 241 238 234
217 219 222 222 226 232 226 230 222 231 238 241 224 233 260 291 275 252 232 221 230 249 266 259 240 227 231 227 211 216 198 216 230 238 244 245 246 244 243 241 238 234 232
217 221 220 221 221 228 227 234 231 236 233 241 245 238 239 239 248 261 269 273 256 253 244 242 244 243 235 230 227 209 194 212 224 234 244 247 243 241 238 236 238 237 232
216 217 220 221 223 226 223 226 231 230 236 241 250 249 245 249 247 253 263 265 266 259 254 251 248 244 242 238 231 162 189 212 222 232 240 239 238 235 232 230 235 234 234
219 214 220 219 222 223 225 225 225 236 231 233 240 245 251 257 260 260 264 272 278 271 247 241 236 240 242 236 209 175 205 212 224 234 233 230 229 230 226 227 227 229 231
230 215 216 220 223 223 224 222 229 230 231 233 240 243 249 250 252 251 253 263 273 268 246 242 250 233 243 242 194 207 221 203 220 227 225 221 218 216 216 219 220 223 224
225 215 216 220 221 222 225 225 230 233 230 234 238 236 243 248 243 246 245 248 260 272 269 236 245 236 247 253 195 237 243 196 209 214 212 208 210 213 215 214 212 212 210
218 216 216 220 222 222 225 229 232 231 233 235 240 245 243 247 239 237 238 241 247 261 273 265 253 260 271 263 216 244 245 193 206 206 207 210 214 216 214 211 207 206 205
214 217 220 222 224 225 226 227 235 236 234 236 237 236 238 248 249 244 239 240 244 247 257 267 259 243 240 257 244 248 242 238 214 194 206 215 217 216 214 213 211 209 209
216 218 220 223 227 228 227 229 233 235 233 234 237 240 242 238 238 244 244 241 242 243 249 259 266 255 245 245 248 251 248 246 243 195 200 211 214 213 214 216 214 211 209
219 220 221 223 227 230 231 232 234 237 236 236 238 240 239 239 239 238 240 243 242 240 239 249 253 248 247 239 242 248 252 252 250 209 200 206 209 212 217 218 215 212 210
217 221 223 224 225 227 229 233 234 236 238 239 239 240 240 239 240 240 237 239 244 246 239 244 250 245 243 236 239 245 248 240 247 235 212 213 210 211 215 215 215 213 211
215 220 225 227 228 227 227 229 235 234 234 238 240 241 240 238 245 246 250 245 243 246 245 244 247 249 245 237 242 246 251 250 241 234 231 224 216 219 214 213 212 209 210
216 216 221 225 228 231 205 220 240 241 238 237 238 239 238 231 229 229 245 254 253 245 248 250 250 252 254 251 249 252 251 251 248 225 234 240 230 230 224 221 197 200 209
215 217 221 224 229 225 204 213 233 243 243 242 240 241 247 241 234 239 228 228 237 241 245 249 254 257 259 257 254 253 251 253 256 243 237 244 233 237 236 217 184 196 204
218 220 224 228 231 222 195 210 226 238 244 242 241 241 243 249 244 245 242 241 242 241 240 242 249 254 258 259 250 254 256 253 253 242 232 250 244 243 243 220 189 197 204
220 222 223 227 229 221 196 202 223 238 239 244 243 240 240 241 228 232 243 246 248 247 234 228 242 252 264 255 248 253 250 249 252 242 226 246 254 254 247 234 201 196 204
223 228 227 229 229 227 198 200 220 238 238 243 239 234 227 227 218 222 239 245 250 253 256 249 242 240 243 237 221 232 245 249 254 253 220 234 248 251 253 240 225 204 208
Height
1565 1565 1566 1566 1567 1568 1568 1568 1569 1570 1570 1571 1571 1572 1572 1573 1573 1574 1573 1572 1572 1572 1573 1573 1573 1573 1574 1575 1575 1576 1576 1577 1577 1578 1578 1579 1580 1580 1581 1582 1582 1583 1583
1564 1565 1565 1566 1567 1567 1568 1568 1569 1569 1569 1570 1570 1571 1571 1572 1572 1572 1573 1572 1571 1571 1571 1571 1572 1572 1572 1573 1573 1574 1574 1575 1575 1576 1576 1577 1578 1578 1579 1580 1580 1581 1581
1564 1565 1566 1566 1566 1566 1566 1567 1567 1568 1568 1569 1569 1569 1570 1570 1571 1570 1571 1571 1571 1570 1569 1570 1570 1570 1571 1571 1571 1572 1572 1573 1573 1574 1574 1575 1575 1576 1576 1577 1577 1578 1578
1563 1564 1565 1566 1565 1566 1566 1566 1567 1567 1567 1568 1568 1568 1569 1568 1568 1568 1569 1569 1569 1569 1568 1567 1568 1568 1568 1569 1569 1569 1570 1570 1571 1571 1572 1572 1573 1573 1574 1574 1575 1575 1575
1562 1563 1564 1564 1564 1565 1565 1566 1566 1566 1566 1567 1567 1567 1567 1567 1567 1567 1568 1567 1567 1566 1567 1566 1565 1566 1566 1566 1567 1567 1567 1568 1568 1568 1569 1569 1570 1570 1571 1571 1571 1572 1572
1561 1562 1563 1563 1563 1564 1564 1564 1564 1564 1565 1565 1566 1566 1566 1566 1566 1566 1566 1566 1565 1565 1565 1565 1564 1564 1563 1564 1564 1564 1565 1565 1565 1565 1566 1566 1566 1566 1567 1567 1568 1568 1569
1560 1560 1562 1561 1561 1562 1562 1563 1563 1563 1564 1564 1565 1565 1565 1565 1565 1564 1564 1565 1564 1564 1563 1563 1562 1562 1562 1561 1562 1562 1562 1562 1562 1563 1563 1563 1563 1563 1563 1563 1563 1564 1564
1558 1559 1559 1560 1560 1560 1560 1561 1561 1562 1562 1563 1563 1564 1563 1564 1563 1563 1563 1562 1562 1562 1562 1561 1560 1560 1560 1560 1560 1559 1559 1559 1559 1560 1559 1559 1559 1559 1559 1559 1560 1560 1560
1556 1557 1558 1558 1558 1559 1559 1559 1559 1560 1561 1561 1561 1562 1562 1561 1562 1562 1561 1561 1561 1560 1560 1559 1558 1558 1558 1558 1557 1556 1556 1556 1556 1556 1556 1556 1556 1556 1556 1556 1556 1556 1556
1554 1555 1555 1556 1556 1557 1557 1557 1558 1558 1558 1559 1560 1559 1560 1560 1560 1560 1560 1560 1559 1558 1558 1557 1557 1556 1556 1555 1554 1554 1554 1553 1553 1553 1553 1553 1553 1552 1552 1552 1552 1552 1552
1551 1552 1552 1553 1553 1554 1554 1554 1555 1555 1556 1556 1557 1557 1557 1558 1558 1558 1558 1558 1557 1556 1556 1555 1555 1554 1554 1553 1552 1551 1551 1551 1550 1550 1550 1550 1549 1549 1549 1549 1549 1548 1548
1548 1548 1549 1550 1550 1551 1551 1552 1552 1552 1553 1553 1554 1555 1555 1555 1556 1555 1555 1555 1554 1554 1553 1553 1552 1552 1551 1551 1550 1549 1548 1548 1547 1547 1547 1546 1546 1546 1545 1545 1545 1545 1545
1545 1545 1546 1546 1547 1548 1549 1549 1549 1550 1550 1550 1551 1551 1552 1552 1553 1552 1553 1552 1552 1551 1550 1550 1550 1549 1549 1548 1547 1546 1545 1545 1545 1544 1544 1543 1543 1543 1542 1542 1542 1542 1542
1542 1542 1542 1543 1544 1545 1546 1546 1547 1547 1547 1547 1548 1548 1549 1549 1550 1549 1550 1550 1549 1549 1548 1548 1548 1547 1546 1545 1544 1543 1543 1542 1542 1541 1541 1540 1540 1540 1539 1539 1539 1539 1539
1538 1538 1539 1540 1540 1541 1542 1543 1544 1544 1544 1544 1545 1545 1545 1546 1546 1546 1546 1546 1547 1546 1545 1545 1545 1544 1543 1542 1541 1540 1540 1539 1539 1538 1538 1537 1537 1537 1537 1536 1536 1536 1536
1533 1534 1535 1536 1537 1538 1538 1539 1540 1540 1540 1541 1541 1542 1542 1543 1543 1543 1543 1543 1543 1543 1543 1542 1542 1541 1540 1540 1539 1538 1537 1536 1536 1535 1535 1534 1534 1534 1534 1534 1533 1533 1533
1529 1530 1531 1532 1533 1534 1535 1535 1536 1537 1537 1537 1537 1538 1538 1538 1539 1539 1539 1539 1539 1540 1539 1539 1539 1537 1536 1536 1535 1535 1534 1534 1533 1532 1532 1531 1531 1531 1531 1530 1530 1530 1530
1524 1526 1527 1528 1529 1530 1530 1531 1532 1532 1533 1533 1534 1534 1534 1535 1535 1535 1535 1536 1536 1536 1536 1535 1535 1534 1533 1533 1532 1531 1531 1531 1530 1529 1528 1528 1528 1527 1527 1527 1527 1527 1526
1520 1522 1523 1524 1524 1525 1526 1527 1528 1528 1529 1529 1529 1530 1530 1531 1531 1531 1531 1532 1532 1532 1532 1532 1531 1531 1530 1529 1528 1528 1528 1527 1527 1526 1525 1525 1524 1524 1524 1524 1523 1523 1523
1516 1517 1519 1519 1520 1521 1521 1522 1523 1524 1524 1525 1525 1525 1526 1526 1527 1527 1528 1527 1528 1528 1527 1527 1527 1527 1526 1525 1525 1525 1525 1524 1524 1524 1522 1522 1521 1521 1520 1520 1520 1520 1520
1511 1513 1514 1515 1516 1516 1517 1518 1518 1519 1519 1520 1520 1520 1521 1521 1522 1523 1524 1523 1523 1523 1523 1523 1523 1523 1522 1521 1521 1521 1521 1520 1520 1519 1518 1518 1517 1517 1516 1516 1516 1516 1516
1507 1508 1509 1510 1511 1512 1512 1513 1514 1515 1515 1515 1515 1515 1516 1516 1517 1517 1518 1518 1519 1519 1519 1519 1518 1518 1518 1518 1517 1517 1517 1517 1516 1516 1515 1515 1514 1513 1513 1513 1512 1512 1512
1502 1503 1504 1505 1506 1507 1508 1508 1509 1509 1510 1510 1510 1510 1511 1512 1512 1512 1513 1513 1513 1513 1513 1514 1513 1513 1513 1513 1512 1513 1513 1512 1512 1511 1511 1511 1510 1510 1509 1508 1507 1507 1507
1497 1499 1499 1501 1502 1502 1503 1504 1504 1504 1505 1504 1505 1505 1506 1506 1507 1507 1508 1508 1508 1508 1508 1508 1508 1508 1508 1508 1508 1508 1508 1508 1507 1507 1507 1507 1506 1506 1505 1504 1502 1502 1503
1493 1494 1495 1496 1497 1497 1498 1499 1499 1499 1499 1499 1500 1500 1500 1501 1501 1501 1502 1502 1503 1503 1503 1502 1502 1502 1502 1502 1502 1503 1503 1504 1503 1503 1502 1502 1502 1501 1500 1499 1498 1497 1498
1489 1490 1491 1491 1492 1493 1493 1493 1494 1495 1494 1495 1494 1494 1494 1495 1495 1496 1496 1497 1496 1497 1497 1497 1497 1496 1496 1497 1497 1497 1498 1498 1498 1498 1497 1497 1497 1497 1496 1495 1494 1493 1493